DW6282 League City TX US current weather conditions

sailwx.info

Wind from 169 at 2 knots gusting 7

Air temperature 34.4° C
Dewpoint 28.4° C

Last reported at 2020-Jul-11 23:00 UTC.
Time now 2020-Jul-11 23:58 UTC

Location: N 29°30' W 095°06'.
View on Google Maps.

See reports from other nearby stations

  
Tides and Currents Weather Stations Pressure Air Temp Water Temp Dewpoint Dewpoint Depression Visibility Wind Speed Wind Dir Waves Ship Positions
date/time (UTC)wind fromknots sea level pressurealtimeterstation pressurevisibilityair tempwater tempwave heightnotes
2020-Jul-11 23:00 169 2 gusting 7 34.4
2020-Jul-11 22:45 135 4 gusting 6 34.4
2020-Jul-11 22:15 158 3 gusting 7 35.0
2020-Jul-11 22:00 174 3 gusting 8 35.6
2020-Jul-11 21:45 143 4 gusting 7 35.6
2020-Jul-11 21:30 160 2 gusting 7 35.0
2020-Jul-11 21:15 239 36.7
2020-Jul-11 21:00 174 36.1
2020-Jul-11 20:31 160 0 gusting 5 36.7
2020-Jul-11 20:16 219 36.7
2020-Jul-11 20:01 240 36.1
2020-Jul-11 19:46 210 35.6
2020-Jul-11 19:31 045 35.6
2020-Jul-11 19:17 257 36.1
2020-Jul-11 19:01 043 35.6
2020-Jul-11 18:46 234 35.0
2020-Jul-11 18:32 074 0 gusting 4 35.0
2020-Jul-11 18:17 201 35.0
2020-Jul-11 18:01 311 35.0
2020-Jul-11 17:46 130 35.0
2020-Jul-11 17:30 225 33.3
2020-Jul-11 17:15 268 0 gusting 2 33.9
2020-Jul-11 17:00 288 0 gusting 3 33.9
2020-Jul-11 16:46 290 0 gusting 8 32.8
2020-Jul-11 16:30 176 0 gusting 4 33.3
2020-Jul-11 16:16 261 1 gusting 6 33.3
2020-Jul-11 16:01 302 32.8
2020-Jul-11 15:45 163 32.8
2020-Jul-11 15:30 235 32.2
2020-Jul-11 15:15 197 31.7
2020-Jul-11 15:00 251 31.7
2020-Jul-11 14:46 274 31.1
2020-Jul-11 14:30 226 30.6
2020-Jul-11 14:15 256 0 gusting 2 30.6
2020-Jul-11 14:00 254 29.4
2020-Jul-11 13:45 245 29.4
2020-Jul-11 13:31 283 28.9
2020-Jul-11 13:15 189 29.4
2020-Jul-11 13:00 192 28.3
2020-Jul-11 12:46 232 27.2
2020-Jul-11 12:31 127 26.1
2020-Jul-11 12:17 134 25.6
2020-Jul-11 12:01 134 25.6
2020-Jul-11 11:46 134 25.0
2020-Jul-11 11:31 134 25.0
2020-Jul-11 11:16 134 25.0
2020-Jul-11 10:46 134 25.0
2020-Jul-11 10:31 134 25.0
2020-Jul-11 10:16 134 25.6
2020-Jul-11 09:45 134 25.6
2020-Jul-11 09:31 133 25.6
2020-Jul-11 09:15 134 25.6
2020-Jul-11 09:02 153 25.6
2020-Jul-11 08:46 157 25.6
2020-Jul-11 08:33 157 26.1
2020-Jul-11 08:16 157 26.1
2020-Jul-11 08:00 284 26.1
2020-Jul-11 07:45 285 26.1
2020-Jul-11 07:31 285 25.6
2020-Jul-11 07:16 285 26.1
2020-Jul-11 07:00 285 26.1
2020-Jul-11 06:45 233 26.1
2020-Jul-11 06:30 233 26.1
2020-Jul-11 06:15 233 26.7
2020-Jul-11 06:00 155 26.7
2020-Jul-11 05:45 155 26.7
2020-Jul-11 05:31 148 26.7
2020-Jul-11 05:16 143 27.2
2020-Jul-11 04:46 153 27.2
2020-Jul-11 04:30 150 27.2
2020-Jul-11 04:15 150 27.8
2020-Jul-11 04:00 150 27.8
2020-Jul-11 03:45 160 27.8
2020-Jul-11 03:30 149 27.8
2020-Jul-11 03:15 164 0 gusting 3 27.8
2020-Jul-11 03:00 162 0 gusting 3 28.3
2020-Jul-11 02:45 172 28.3
2020-Jul-11 02:30 148 28.9
2020-Jul-11 02:15 164 28.9
2020-Jul-11 01:45 165 29.4
2020-Jul-11 01:30 186 0 gusting 3 29.4
2020-Jul-11 01:15 179 0 gusting 6 30.0
2020-Jul-11 00:45 141 2 gusting 6 31.7
2020-Jul-11 00:30 190 2 gusting 6 31.7
2020-Jul-11 00:15 190 2 gusting 6 32.2
2020-Jul-11 00:00 178 1 gusting 6 32.8
2020-Jul-10 23:45 172 1 gusting 6 33.3
2020-Jul-10 23:30 203 2 gusting 6 33.3
2020-Jul-10 23:15 184 2 gusting 6 33.3
2020-Jul-10 23:00 195 2 33.9
2020-Jul-10 22:45 118 2 gusting 6 34.4
2020-Jul-10 22:30 188 2 gusting 6 33.9
2020-Jul-10 21:46 105 0 gusting 6 35.0
2020-Jul-10 21:32 121 2 gusting 6 35.6
2020-Jul-10 21:17 166 2 gusting 6 35.6
2020-Jul-10 21:01 139 1 gusting 6 35.6
2020-Jul-10 20:46 205 1 gusting 5 36.1
2020-Jul-10 20:33 162 0 gusting 5 36.1
2020-Jul-10 20:16 172 0 gusting 5 36.1
2020-Jul-10 20:01 146 1 gusting 5 36.1
2020-Jul-10 19:47 205 0 gusting 4 35.6
2020-Jul-10 19:31 181 1 gusting 5 35.0
2020-Jul-10 19:16 202 0 gusting 4 35.6
2020-Jul-10 19:02 096 1 gusting 6 35.6
2020-Jul-10 18:46 195 1 gusting 5 35.6
2020-Jul-10 18:30 155 2 gusting 6 35.6
2020-Jul-10 18:16 197 0 gusting 4 35.6
2020-Jul-10 18:01 203 35.0
2020-Jul-10 17:45 151 0 gusting 5 34.4
2020-Jul-10 17:30 129 33.9
2020-Jul-10 17:18 150 0 gusting 2 34.4
2020-Jul-10 17:01 204 33.9
2020-Jul-10 16:46 253 0 gusting 5 34.4
2020-Jul-10 16:30 172 0 gusting 5 34.4
2020-Jul-10 16:16 314 33.9
2020-Jul-10 16:01 255 33.9
2020-Jul-10 15:46 194 33.3
2020-Jul-10 15:31 217 0 gusting 5 32.2
2020-Jul-10 15:15 102 0 gusting 5 32.2
2020-Jul-10 15:00 223 0 gusting 6 31.7
2020-Jul-10 14:45 166 1 gusting 3 31.7
2020-Jul-10 14:30 239 31.7
2020-Jul-10 14:15 149 30.6
2020-Jul-10 14:00 166 30.6
2020-Jul-10 13:45 155 30.6
2020-Jul-10 13:30 147 30.6
2020-Jul-10 13:15 162 29.4
2020-Jul-10 13:01 169 28.3
2020-Jul-10 12:47 147 27.2
2020-Jul-10 12:31 158 26.7
2020-Jul-10 12:16 158 25.6
2020-Jul-10 12:01 158 25.0
2020-Jul-10 11:46 155 25.0
2020-Jul-10 11:31 155 25.0
2020-Jul-10 11:16 155 25.0
2020-Jul-10 11:01 155 25.0
2020-Jul-10 10:45 155 25.0
2020-Jul-10 10:30 155 25.0
2020-Jul-10 10:18 155 25.0
2020-Jul-10 10:00 155 25.0
2020-Jul-10 09:45 155 25.0
2020-Jul-10 09:31 153 25.0
2020-Jul-10 09:16 153 25.0
2020-Jul-10 09:00 153 25.0
2020-Jul-10 08:45 155 25.0
2020-Jul-10 08:31 153 25.0
2020-Jul-10 08:16 143 25.6
2020-Jul-10 08:00 149 25.6
2020-Jul-10 07:45 148 25.6
2020-Jul-10 07:30 148 25.6
2020-Jul-10 07:15 148 25.6
2020-Jul-10 07:00 148 25.6
2020-Jul-10 06:46 159 25.6
2020-Jul-10 06:30 158 26.1
2020-Jul-10 06:15 153 25.6
2020-Jul-10 06:00 153 25.6
2020-Jul-10 05:45 143 25.6
2020-Jul-10 05:30 141 25.6
2020-Jul-10 05:15 147 25.6
2020-Jul-10 05:00 147 25.6
2020-Jul-10 04:45 136 25.6
2020-Jul-10 04:30 185 25.6
2020-Jul-10 04:15 160 25.6
2020-Jul-10 04:00 115 25.6
2020-Jul-10 03:45 161 25.6
2020-Jul-10 03:30 161 25.6
2020-Jul-10 03:15 151 25.6
2020-Jul-10 03:00 139 25.6
2020-Jul-10 02:45 186 26.1
2020-Jul-10 02:30 143 27.2
2020-Jul-10 02:15 158 28.3
2020-Jul-10 02:01 145 28.3
2020-Jul-10 02:00 142 28.3
2020-Jul-10 01:47 212 28.9
2020-Jul-10 01:31 187 0 gusting 3 28.9
2020-Jul-10 01:18 188 0 gusting 5 29.4
2020-Jul-10 01:01 148 0 gusting 4 30.6
2020-Jul-10 00:46 144 1 gusting 5 30.6
2020-Jul-10 00:31 125 0 gusting 4 31.7
2020-Jul-10 00:17 199 1 gusting 5 31.7
2020-Jul-10 00:01 146 1 gusting 7 31.7
2020-Jul-09 23:46 176 1 gusting 5 31.7
2020-Jul-09 23:32 204 1 gusting 6 32.8
2020-Jul-09 23:16 219 1 gusting 6 32.8
2020-Jul-09 23:01 125 2 gusting 7 32.8